This demonstration page uses our WeatherBlox Daily Observations layout. Learn more.

Left ArrowRight Arrow

36.17497, -115.13722

Hourly Observations for December 20, 2019

Temp ( °F °C ) Dew Point ( °F °C ) Humidity (%) Winds ( mph kmh ) Pressure ( in mb ) Visibility ( mi km ) Precip ( " mm )
12:53 am 00:53 Clear 39 3.9 22 -5.6 50 50 WNW 5 7 30.39 1029 10 16 0.00 0.00
1:53 am 01:53 Clear 41 5 21 -6.1 45 45 WNW 6 9 30.39 1029 10 16 0.00 0.00
2:53 am 02:53 Clear 40 4.4 21 -6.1 47 47 Calm 30.39 1029 10 16 0.00 0.00
3:53 am 03:53 Clear 39 3.9 21 -6.1 48 48 Calm 30.39 1029 10 16 0.00 0.00
4:53 am 04:53 Clear 40 4.4 21 -6.1 47 47 NW 6 9 30.40 1030 10 16 0.00 0.00
5:53 am 05:53 Clear 37 2.8 22 -5.6 54 54 NW 5 7 30.43 1031 10 16 0.00 0.00
6:53 am 06:53 Sunny 36 2.2 22 -5.6 57 57 Calm 30.45 1031 10 16 0.00 0.00
7:53 am 07:53 Sunny 41 5 23 -5 49 49 W 6 9 30.46 1032 10 16 0.00 0.00
8:53 am 08:53 Sunny 46 7.8 23 -5 40 40 Calm 30.48 1032 10 16 0.00 0.00
9:53 am 09:53 Sunny 49 9.4 22 -5.6 35 35 Calm 30.48 1032 10 16 0.00 0.00
10:53 am 10:53 Sunny 52 11.1 21 -6.1 30 30 Calm 30.45 1031 10 16 0.00 0.00
11:53 am 11:53 Sunny 55 12.8 22 -5.6 28 28 Calm 30.42 1030 10 16 0.00 0.00
12:53 pm 12:53 Sunny 57 13.9 21 -6.1 25 25 Calm 30.40 1029 10 16 0.00 0.00
1:53 pm 13:53 Sunny 56 13.3 21 -6.1 26 26 Calm 30.38 1029 10 16 0.00 0.00
2:53 pm 14:53 Sunny 57 13.9 20 -6.7 24 24 Calm 30.38 1029 10 16 0.00 0.00
3:53 pm 15:53 Sunny 56 13.3 22 -5.6 27 27 S 3 6 30.37 1029 10 16 0.00 0.00
4:53 pm 16:53 Clear 54 12.2 22 -5.6 29 29 Calm 30.38 1029 10 16 0.00 0.00
5:53 pm 17:53 Clear 52 11.1 25 -3.9 35 35 E 3 6 30.40 1029 10 16 0.00 0.00
6:53 pm 18:53 Clear 49 9.4 26 -3.3 41 41 NNW 6 9 30.41 1030 10 16 0.00 0.00
7:53 pm 19:53 Clear 48 8.9 26 -3.3 42 42 WNW 3 6 30.41 1030 10 16 0.00 0.00
8:53 pm 20:53 Clear 47 8.3 27 -2.8 46 46 WNW 5 7 30.40 1030 10 16 0.00 0.00
9:53 pm 21:53 Clear 44 6.7 28 -2.2 53 53 Calm 30.40 1030 10 16 0.00 0.00
10:53 pm 22:53 Clear 44 6.7 28 -2.2 53 53 Calm 30.40 1029 10 16 0.00 0.00
11:53 pm 23:53 Clear 43 6.1 28 -2.2 56 56 NW 5 7 30.38 1029 10 16 0.00 0.00

Powered by AerisWeather